Regional Weather Roundup
Issued by NWS Sterling, VA

Home | Current Version | Previous Version | Text Only | Print | Product List | Glossary Off
Versions: 1 2 3 4 5 6 7 8 9 10 11 12 13 14 15 16 17 18 19 20 21 22 23 24 25 26 27

000
ASUS41 KLWX 290911
RWRLWX

REGIONAL WEATHER ROUNDUP
NATIONAL WEATHER SERVICE BALTIMORE MD/WASHINGTON DC
500 AM EDT SAT APR 29 2017

Note: "FAIR" indicates few or no clouds below 12,000 feet
with no significant weather and/or obstructions to visibility.
 TC=TEMPERATURE CELSIUS

 * =Non NWS site. Station does not report precipitation (e.g. rain,
    snow, etc.), thunder, or fog.

DCZ001-MDZ009-015-VAZ040>042-051-053>054-291000-
WASHINGTON METRO

CITY           SKY/WX    TMP DP  RH WIND       PRES   REMARKS
WASHINGTON NAT CLOUDY    73  68  84 S7        30.05F
DULLES         CLOUDY    67  63  87 S6        30.04F
ANDREWS AFB    CLOUDY    72  67  83 SW6       30.05F
FT BELVOIR     CLOUDY    70  66  85 CALM      30.05F
QUANTICO       CLOUDY    73  69  87 CALM      30.08R
COLLEGE PARK*  CLOUDY    72  66  82 S3        30.03F
LEESBURG*      LGT RAIN  68  68 100 S8        30.03F
MANASSAS*        N/A     69  65  86 S5        30.06F

$$

MDZ006>007-011-014-291000-
BALTIMORE METRO

CITY           SKY/WX    TMP DP  RH WIND       PRES   REMARKS
BWI AIRPORT    CLOUDY    71  68  90 SW6       30.02F
MD SCIENCE CTR   N/A     73  66  78 MISG      30.02F
MARTIN STATE   CLOUDY    70  70 100 SW3       30.03F
ANNAPOLIS      CLOUDY    71  70  96 VRB3      30.04R
FORT MEADE*    CLOUDY    64  63  94 S3        30.05F

$$

MDZ012-015-019>023-291000-
MARYLAND EASTERN SHORE

CITY           SKY/WX    TMP DP  RH WIND       PRES   REMARKS
OCEAN CITY     CLOUDY    70  68  93 SW10      30.05S
SALISBURY      CLOUDY    75  73  93 SW13G20   30.05R
BAY BRIDGE AP* CLOUDY    66  64  94 S5        30.05R FOG
CAMBRIDGE*       N/A     73  70  88 VRB7G14   30.06R
EASTON*        LGT RAIN  73  69  87 W8        30.10R

$$

MDZ017>025-291000-
SOUTHERN MARYLAND

CITY           SKY/WX    TMP DP  RH WIND       PRES   REMARKS
PATUXENT RIVER CLOUDY    75  73  93 SW12      30.04R
ST INIGOES     CLOUDY    74  70  87 SW9       30.05R
LEONARDTOWN*   CLOUDY    73  70  88 W12       30.08R

$$

MDZ003>005-291000-
NORTH CENTRAL MARYLAND

CITY           SKY/WX    TMP DP  RH WIND       PRES   REMARKS
FREDERICK*     LGT RAIN  68  68 100 S6        30.02F
HAGERSTOWN APT CLOUDY    70  64  81 S6        29.98F
WESTMINSTER*   LGT RAIN  68  66  94 S6        30.00F

$$

MDZ501>502-291000-
WESTERN MARYLAND

CITY           SKY/WX    TMP DP  RH WIND       PRES   REMARKS
OAKLAND*         N/A     57  54  88 SW10G18   30.10R
CUMBERLAND*    CLOUDY    63  63 100 SE6       30.05F

$$

VAZ025>031-291000-
SHENANDOAH VALLEY

CITY           SKY/WX    TMP DP  RH WIND       PRES   REMARKS
WINCHESTER*    CLOUDY    64  61  88 S7        30.01F
FRONT ROYAL*   CLOUDY    64  64 100 SW5       30.02F
LURAY*         CLOUDY    70  63  78 S3        30.06F
NEW MARKET*    CLOUDY    66  62  86 W5        30.06F
STAUNTON*      CLOUDY    67  62  82 CALM      30.12F
WAYNESBORO*    CLOUDY    70  64  80 W5        30.13R

$$

WVZ021-048>050-054>055-291000-
EASTERN WEST VIRGINIA PANHANDLE

CITY           SKY/WX    TMP DP  RH WIND       PRES   REMARKS
MARTINSBURG    CLOUDY    65  63  93 SW5       29.99F
PETERSBURG*    CLOUDY    64  63  96 E3        30.05S

$$

VAZ036>039-050-291000-
CENTRAL FOOTHILLS

CITY           SKY/WX    TMP DP  RH WIND       PRES   REMARKS
CHARLOTTESVILL CLOUDY    70  65  84 S9        30.08R
CULPEPER*      CLOUDY    70  67  90 S3        30.07F
ORANGE*        CLOUDY    68  64  88 CALM      30.10R
GORDONSVILLE*  PTCLDY    68  66  94 CALM      30.08R
WARRENTON*     CLOUDY    69  64  85 S5        30.07F

$$

VAZ055>057-291000-
NORTH AND CENTRAL PIEDMONT

CITY           SKY/WX    TMP DP  RH WIND       PRES   REMARKS
FREDERICKSBRG* CLOUDY    74  68  83 NW6       30.09R
STAFFORD*      MOCLDY    70  68  95 NW3       30.13R

$$

NCZ024-NYZ072-PAZ021-071-VAZ022-071-291000-
OTHER REGIONAL OBSERVATIONS

CITY           SKY/WX    TMP DP  RH WIND       PRES   REMARKS
NEW YORK CITY  LGT RAIN  67  60  78 CALM      30.01F
PHILADELPHIA   CLOUDY    67  65  93 S5        29.98F
PITTSBURGH     CLOUDY    55  55 100 CALM      29.98S
ROANOKE        CLOUDY    69  63  81 W3        30.13R
RICHMOND       CLOUDY    73  72  96 SW10      30.09R
RALEIGH        MOCLDY    74  70  87 SW12      30.16R

$$

ANZ530>537-291000-
MARINE OBSERVATIONS

STATION/POSITION TIME  TEMP    WIND        PRES
                       AIR SEA DIR/SP/G
                 (UTC) (F)     (DEG/KT/KT) (MB)
THOMAS PT LIGHT  0900   68 58  270/  5/  5   N/A
BALT KEY BRIDGE  0848   72     220/ 11/ 13 1016.5F
COVE POINT       0848   75     250/ 13/ 17 1018.0R
LEWISETTA        0848   75 68  240/ 14/ 17 1017.4F
SOLOMONS ISLAND  0842   73 62  230/ 15/ 18   N/A
PINEY POINT      0848          260/  7/  9   N/A

$$





USA.gov is the U.S. government's official web portal to all federal, state and local government web resources and services.